This demonstration page uses our WeatherBlox Daily Observations layout. Learn more.

Left ArrowRight Arrow

Hourly Observations for December 16, 2015

Temp ( °F °C ) Dew Point ( °F °C ) Humidity (%) Winds ( mph kmh ) Pressure ( in mb ) Visibility ( mi km ) Precip ( " mm )
12:53 am 00:53 Clear 47 8.3 43 6.1 86 86 Calm 29.94 1014 10 16 0.00 0.00
1:18 am 01:18 Clear with Mist and Fog 43 6 41 5 93 93 Calm 29.97 1015 2 3 0.00 0.00
1:25 am 01:25 Clear with Mist and Fog 44 6.7 41 5 89 89 Calm 29.97 1015 3 5 0.00 0.00
1:53 am 01:53 Clear 44 6.7 42 5.6 93 93 Calm 29.94 1014 10 16 0.00 0.00
2:45 am 02:45 Mostly Clear 42 5.6 40 4.4 92 92 Calm 29.97 1015 10 16 0.00 0.00
2:53 am 02:53 Partly Cloudy 43 6.1 40 4.4 89 89 Calm 29.93 1014 10 16 0.00 0.00
3:53 am 03:53 Mostly Clear 41 5 39 3.9 93 93 Calm 29.93 1014 9 14 0.00 0.00
4:05 am 04:05 Partly Cloudy with Mist and Fog 41 5 39 3.9 93 93 Calm 29.97 1015 2 3 0.00 0.00
4:18 am 04:18 Partly Cloudy with Mist and Fog 41 5 37 3 87 87 Calm 29.97 1015 4 6 0.00 0.00
4:25 am 04:25 Partly Cloudy with Mist and Fog 41 5 39 3.9 93 93 Calm 29.97 1015 2 2 0.00 0.00
4:32 am 04:32 Partly Cloudy with Fog 41 5 37 3 87 87 Calm 29.97 1015 1 1 0.00 0.00
4:37 am 04:37 Partly Cloudy with Mist and Fog 42 5.6 39 3.9 89 89 Calm 29.97 1015 1 2 0.00 0.00
4:42 am 04:42 Partly Cloudy with Mist and Fog 43 6 39 4 87 87 Calm 29.97 1015 4 6 0.00 0.00
4:53 am 04:53 Partly Cloudy 41 5 39 3.9 93 93 Calm 29.93 1014 10 16 0.00 0.00
5:53 am 05:53 Clear 40 4.4 38 3.3 93 93 Calm 29.95 1014 8 13 0.00 0.00
6:07 am 06:07 Mostly Clear with Mist and Fog 39 3.9 37 2.8 93 93 Calm 29.97 1015 6 10 0.00 0.00
6:53 am 06:53 Clear 39 3.9 36 2.2 89 89 Calm 29.96 1015 10 16 0.00 0.00
7:53 am 07:53 Sunny 39 3.9 36 2.2 89 89 Calm 29.98 1015 10 16 0.00 0.00
8:53 am 08:53 Sunny 45 7.2 41 5 86 86 Calm 30.00 1016 10 16 0.00 0.00
9:53 am 09:53 Sunny 52 11.1 47 8.3 83 83 Calm 30.01 1016 10 16 0.00 0.00
10:53 am 10:53 Sunny 59 15 49 9.4 69 69 Calm 30.00 1016 10 16 0.00 0.00
11:53 am 11:53 Sunny 67 19.4 48 8.9 51 51 VRB 5 7 29.97 1015 10 16 0.00 0.00
12:53 pm 12:53 Sunny 70 21.1 46 7.8 42 42 SE 7 11 29.92 1013 10 16 0.00 0.00
1:53 pm 13:53 Sunny 72 22.2 45 7.2 38 38 S 8 13 29.90 1013 10 16 0.00 0.00
2:53 pm 14:53 Partly Cloudy 73 22.8 45 7.2 37 37 SSW 8 13 29.89 1012 10 16 0.00 0.00
3:53 pm 15:53 Partly Cloudy 72 22.2 46 7.8 40 40 SE 7 11 29.90 1013 10 16 0.00 0.00
4:53 pm 16:53 Mostly Cloudy 70 21.1 46 7.8 42 42 SSE 5 7 29.91 1013 10 16 0.00 0.00
5:53 pm 17:53 Mostly Cloudy 67 19.4 49 9.4 53 53 S 10 17 29.91 1013 10 16 0.00 0.03
6:53 pm 18:53 Partly Cloudy 63 17.2 49 9.4 60 60 SE 8 13 29.92 1013 10 16 0.00 0.00
7:53 pm 19:53 Cloudy 63 17.2 48 8.9 58 58 ESE 5 7 29.93 1013 10 16 0.00 0.00
8:53 pm 20:53 Cloudy 62 16.7 49 9.4 62 62 E 3 6 29.91 1013 10 16 0.00 0.00
9:33 pm 21:33 Cloudy 61 16.1 50 10 67 67 SSE 10 17 29.94 1014 10 16 0.00 0.00
9:53 pm 21:53 Cloudy with Light Rain 60 15.6 52 11.1 75 75 SSE 9 15 29.92 1013 9 14 0.00 0.03
10:37 pm 22:37 Cloudy with Rain 58 14.4 54 12.2 87 87 ESE 5 7 29.91 1013 8 13 0.06 1.52
10:53 pm 22:53 Cloudy with Light Rain 57 13.9 54 12.2 90 90 Calm 29.90 1013 9 14 0.09 2.29
11:38 pm 23:38 Cloudy with Rain 57 14 54 12 88 88 VRB 3 6 29.91 1013 6 10 0.00 0.00
11:48 pm 23:48 Cloudy with Heavy Rain 57 14 54 12 88 88 ENE 3 6 29.91 1013 5 8 0.00 0.00
11:53 pm 23:53 Cloudy with Rain 57 13.9 54 12.2 90 90 ENE 5 7 29.88 1012 4 6 0.14 3.56

Powered by AerisWeather